User: anonymous   Login
Location: Unspecified
(0.0000°N, 0.0000°E)
Time: 07:49:52
(UTC+00:00)
Language:

M-CUBED/EXP-1 PRIME - Orbit

View from above orbital plane
View from above orbital plane
View from above satellite
View from above satellite

Ground track
Ground track

The orbit data is extracted from the following two-line orbital elements,

1 37855U 11061F   24104.95758566  .00150769  00000-0  17689-2 0  9990
2 37855 101.6884 249.5813 0062353 183.1265 176.9594 15.58577049683431
Epoch (UTC): 13 April 2024 22:58:55
Eccentricity: 0.0062353
inclination: 101.6884°
perigee height: 349 km
apogee height: 434 km
right ascension of ascending node: 249.5813°
argument of perigee: 183.1265°
revolutions per day: 15.58577049
mean anomaly at epoch: 176.9594°
orbit number at epoch: 68343

The dashed part of the orbit path shows where the satellite is in the earth's shadow,  

DLR